#timestamp,LO_Frequency,Hit,StdDev 
1564297215.4,286046998.9,N
1564297235.3,286046998.2,N
1564297255.1,286047000.4,N
1564297256.0,286047000.4,N
1564297275.8,286046999.4,N
1564297295.7,286046998.9,N
1564297315.5,286046998.2,N
1564297335.3,286046998.1,N
1564297355.2,286046996.9,Y
1564297375.0,286047000.4,P
1564297375.9,286047000.4,N
1564297395.8,286047000.7,N
1564297415.6,286047001.2,N
1564297435.4,286047000.5,N
1564297455.3,286047002.2,Y
1564297475.1,286047002.1,P
1564297495.9,286047002.2,N
1564297515.7,286046999.7,N
1564297535.5,286046998.3,N
1564297555.4,286046999.0,N
1564297575.2,286046998.6,N
1564297595.0,286047000.8,N
1564297596.0,286047000.8,N
1564297615.8,286047000.6,N
1564297635.6,286047000.6,N
1564297655.5,286047001.1,N
1564297675.3,286047002.6,N
1564297695.1,286047000.9,N
1564297715.9,286047000.6,N
1564297735.7,286047002.6,N
1564297755.6,286047001.0,N
1564297775.4,286047000.9,N
1564297795.2,286047000.4,N
1564297815.1,286047001.6,N
1564297816.0,286047001.6,N
1564297835.8,286047002.0,N
1564297855.7,286047002.4,N
1564297875.5,286046999.9,N
1564297895.3,286047000.1,N
1564297915.2,286047000.2,N
1564297935.0,286047002.0,N
1564297935.9,286047002.0,N
1564297955.8,286047003.8,Y
1564297975.6,286047003.8,P
1564297995.4,286047003.2,N
1564298015.3,286047003.2,N
1564298035.1,286047001.4,N
1564298055.8,286047004.4,Y
1564298075.7,286047000.8,P
1564298095.5,286047000.5,N
1564298115.4,286047000.9,N
1564298135.2,286046996.8,Y
1564298155.0,286046995.0,P
1564298155.9,286046995.0,N
1564298175.8,286046997.3,N
1564298195.6,286046997.8,N
1564298215.5,286046997.1,N
1564298235.3,286046999.3,N
1564298255.1,286046997.0,N
1564298275.9,286046998.2,N
1564298295.7,286046998.7,N
1564298315.5,286046998.4,N
1564298335.4,286047001.2,N
1564298355.2,286047001.0,N
1564298375.1,286047000.3,N
1564298376.0,286047000.3,N
1564298395.8,286046998.6,N
1564298415.6,286047001.2,N
1564298435.5,286046998.8,N
1564298455.3,286046998.4,N
1564298475.1,286046998.2,N
1564298495.9,286047001.2,N
1564298515.7,286047000.3,N
1564298535.6,286047000.7,N
1564298555.4,286047001.0,N
1564298575.2,286047000.1,N
1564298595.1,286046999.5,N
1564298596.0,286046999.5,N
1564298615.8,286046999.3,N
1564298635.7,286046998.7,N
1564298655.5,286046999.3,N
1564298675.3,286046999.0,N
1564298695.2,286046997.1,N
1564298715.0,286046996.6,N
1564298715.9,286046996.6,N
1564298735.8,286046996.5,N
1564298755.6,286046999.3,N
1564298775.4,286046997.8,N
1564298795.3,286046997.0,N
1564298815.1,286046999.2,N
1564298835.9,286046999.0,N
1564298855.7,286046998.4,N
1564298875.5,286046998.3,N
1564298895.4,286047000.6,N
1564298915.2,286046999.7,N
1564298935.1,286047000.4,N
1564298936.0,286047000.4,N
1564298955.8,286046999.8,N
1564298975.6,286047000.3,N
1564298995.5,286047002.3,N
1564299015.3,286047002.2,N
1564299035.1,286047002.1,N
1564299055.9,286047002.1,N
1564299075.7,286047002.5,N
1564299095.6,286047002.6,N
1564299115.4,286046999.9,N
1564299135.2,286047000.2,N
1564299155.1,286047000.6,N
1564299156.0,286047000.6,N
1564299175.8,286047000.3,N
1564299195.7,286046999.9,N
1564299215.5,286047002.6,N
1564299235.3,286046999.7,N
1564299255.2,286046999.9,N
1564299275.0,286047000.9,N
1564299275.9,286047000.9,N
1564299295.8,286047001.0,N
1564299315.6,286046998.9,N
1564299335.4,286046998.3,N
1564299355.3,286046998.4,N
1564299375.1,286046999.2,N
1564299395.9,286046999.4,N
1564299415.7,286046998.4,N
1564299435.5,286046998.7,N
1564299455.4,286046996.9,N
1564299475.2,286046996.8,N
1564299495.0,286046997.7,N
1564299495.9,286046997.7,N
1564299515.8,286046997.0,N
1564299535.6,286046997.4,N
1564299555.5,286046997.4,N
1564299575.3,286046994.9,N
1564299595.1,286046995.0,N
1564299615.9,286046994.9,N
1564299635.7,286046995.4,N
1564299655.6,286046997.4,N
1564299675.4,286046995.3,N
1564299695.2,286046995.3,N
1564299715.1,286046995.5,N
1564299716.0,286046995.5,N
1564299735.8,286046995.7,N
1564299755.6,286046996.2,N
1564299775.5,286046995.6,N
1564299795.3,286046996.3,N
1564299815.2,286046996.3,N
1564299835.9,286046995.1,N
1564299855.9,286046995.4,N
1564299875.7,286046996.0,N
1564299895.6,286046995.8,Y
1564299915.4,286046999.6,P
1564299935.3,286046998.8,N
1564299955.1,286046996.9,N
1564299956.0,286046996.9,N
1564299975.8,286046999.0,N
1564299995.7,286046998.3,N
1564300015.5,286046999.4,N
1564300035.3,286046999.1,N
1564300055.2,286046998.2,N
1564300075.0,286046998.7,N
1564300075.9,286046998.7,N
1564300095.8,286046998.4,N
1564300115.6,286046999.2,N
1564300135.4,286046999.3,N
1564300155.3,286046998.7,N
1564300175.1,286046999.2,N
1564300195.8,286047001.2,N
1564300215.7,286046998.9,N
1564300235.5,286046998.5,N
1564300255.4,286046998.4,N
1564300275.2,286046998.5,N
1564300295.0,286046998.3,N
1564300295.9,286046998.3,N
1564300315.8,286046999.4,N
1564300335.6,286046999.6,N
1564300355.5,286046998.7,N
1564300375.3,286046998.9,N
1564300395.1,286047001.1,N
1564300415.9,286046999.4,N
1564300435.7,286046998.1,N
1564300455.5,286046998.2,N
1564300475.4,286047000.3,N
1564300495.2,286047001.0,N
1564300515.1,286046998.3,N
1564300516.0,286046998.3,N
1564300535.8,286046998.5,N
1564300555.6,286046999.7,N
1564300575.5,286047000.5,N
1564300595.3,286046998.5,N
1564300615.1,286046999.2,N
1564300635.9,286047000.6,N
1564300655.7,286046999.8,N
1564300675.6,286047000.7,N
1564300695.4,286047002.1,N
1564300715.2,286046999.7,N
1564300735.1,286046998.8,N
1564300736.0,286046998.8,N
1564300755.8,286047000.3,N
1564300775.7,286046998.2,N
1564300795.5,286046998.9,N
